• In Uzbekistan
  • List of Countries
  • For 7 days
  • Water Temperature
  • Satellite Maps
  • Weather Map
  • Weather Widgets
  • user-avatar
    Login

    Hourly Weather Eldoret

    Today, 18 June, Tuesday

    Time Temperature Precipitation Wind Pressure Humidity
    00:00 +14°C° 0.1 mm 1 mps 598 mmHg 93%
    01:00 +14°C° 0.1 mm 1 mps 597 mmHg 94%
    02:00 +13°C° 0 mm 0 mps 597 mmHg 95%
    03:00 +13°C° 0 mm 0 mps 597 mmHg 95%
    04:00 +13°C° 0 mm 0 mps 597 mmHg 94%
    05:00 +13°C° 0 mm 0 mps 598 mmHg 94%
    06:00 +14°C° 0 mm 0 mps 598 mmHg 91%
    07:00 +16°C° 0 mm 1 mps 599 mmHg 88%
    08:00 +19°C° 0 mm 1 mps 600 mmHg 85%
    09:00 +20°C° 0.1 mm 1 mps 600 mmHg 76%
    10:00 +22°C° 0.1 mm 1 mps 601 mmHg 67%
    11:00 +24°C° 0.1 mm 2 mps 601 mmHg 59%
    12:00 +23°C° 0.4 mm 2 mps 601 mmHg 62%
    13:00 +23°C° 0.4 mm 2 mps 600 mmHg 66%
    14:00 +23°C° 0.4 mm 2 mps 599 mmHg 70%
    15:00 +21°C° 0.8 mm 1 mps 599 mmHg 77%
    16:00 +20°C° 0.8 mm 1 mps 598 mmHg 84%
    17:00 +19°C° 0.8 mm 1 mps 598 mmHg 91%
    18:00 +16°C° 0.2 mm 1 mps 598 mmHg 92%
    19:00 +14°C° 0.2 mm 0 mps 598 mmHg 93%
    20:00 +13°C° 0.2 mm 0 mps 598 mmHg 94%
    21:00 +13°C° 0 mm 0 mps 598 mmHg 94%
    22:00 +13°C° 0 mm 0 mps 598 mmHg 94%
    23:00 +14°C° 0 mm 1 mps 598 mmHg 94%

    Tomorrow, 19 June, Wednesday

    Time Temperature Precipitation Wind Pressure Humidity
    00:00 +13°C° 0 mm 1 mps 597 mmHg 93%
    01:00 +13°C° 0 mm 1 mps 597 mmHg 93%
    02:00 +13°C° 0 mm 1 mps 597 mmHg 93%
    03:00 +13°C° 0 mm 1 mps 596 mmHg 93%
    04:00 +13°C° 0 mm 1 mps 596 mmHg 94%
    05:00 +12°C° 0 mm 1 mps 596 mmHg 94%
    06:00 +14°C° 0 mm 1 mps 598 mmHg 90%
    07:00 +15°C° 0 mm 0 mps 599 mmHg 86%
    08:00 +17°C° 0 mm 0 mps 600 mmHg 81%
    09:00 +21°C° 0 mm 1 mps 600 mmHg 73%
    10:00 +22°C° 0 mm 1 mps 601 mmHg 64%
    11:00 +24°C° 0 mm 1 mps 601 mmHg 55%
    12:00 +24°C° 0.1 mm 1 mps 601 mmHg 56%
    13:00 +23°C° 0.1 mm 2 mps 600 mmHg 58%
    14:00 +23°C° 0.1 mm 2 mps 599 mmHg 59%
    15:00 +22°C° 0.4 mm 1 mps 599 mmHg 69%
    16:00 +20°C° 0.4 mm 1 mps 598 mmHg 79%
    17:00 +19°C° 0.4 mm 1 mps 597 mmHg 89%
    18:00 +18°C° 0.1 mm 1 mps 597 mmHg 91%
    19:00 +15°C° 0.1 mm 1 mps 597 mmHg 93%
    20:00 +14°C° 0.1 mm 1 mps 597 mmHg 95%
    21:00 +14°C° 0 mm 1 mps 597 mmHg 95%
    22:00 +13°C° 0 mm 1 mps 597 mmHg 94%
    23:00 +13°C° 0 mm 1 mps 597 mmHg 94%

    Day after tomorrow, 20 June, Thursday

    Time Temperature Precipitation Wind Pressure Humidity
    00:00 +13°C° 0 mm 1 mps 597 mmHg 94%
    01:00 +13°C° 0 mm 1 mps 596 mmHg 93%
    02:00 +13°C° 0 mm 1 mps 596 mmHg 93%
    03:00 +13°C° 0 mm 1 mps 596 mmHg 93%
    04:00 +12°C° 0 mm 1 mps 596 mmHg 93%
    05:00 +12°C° 0 mm 1 mps 596 mmHg 93%
    06:00 +14°C° 0 mm 1 mps 597 mmHg 88%
    07:00 +15°C° 0 mm 0 mps 598 mmHg 83%
    08:00 +17°C° 0 mm 0 mps 599 mmHg 79%
    09:00 +21°C° 0 mm 1 mps 600 mmHg 70%
    10:00 +22°C° 0 mm 1 mps 600 mmHg 62%
    11:00 +24°C° 0 mm 1 mps 601 mmHg 54%
    12:00 +24°C° 0.2 mm 1 mps 600 mmHg 58%
    13:00 +23°C° 0.2 mm 2 mps 599 mmHg 63%
    14:00 +23°C° 0.2 mm 2 mps 598 mmHg 67%
    15:00 +20°C° 0.7 mm 2 mps 598 mmHg 75%
    16:00 +20°C° 0.7 mm 1 mps 597 mmHg 83%
    17:00 +19°C° 0.7 mm 1 mps 597 mmHg 91%
    18:00 +18°C° 0.3 mm 1 mps 597 mmHg 93%
    19:00 +15°C° 0.3 mm 1 mps 597 mmHg 94%
    20:00 +13°C° 0.3 mm 0 mps 597 mmHg 95%
    21:00 +13°C° 0.2 mm 0 mps 597 mmHg 95%
    22:00 +13°C° 0.2 mm 0 mps 597 mmHg 95%
    23:00 +13°C° 0.2 mm 0 mps 597 mmHg 95%

    21 June, Friday

    Time Temperature Precipitation Wind Pressure Humidity
    00:00 +12°C° 0 mm 0 mps 596 mmHg 95%
    01:00 +12°C° 0 mm 0 mps 596 mmHg 95%
    02:00 +13°C° 0 mm 1 mps 596 mmHg 94%
    03:00 +13°C° 0 mm 1 mps 596 mmHg 94%
    04:00 +13°C° 0 mm 1 mps 596 mmHg 94%
    05:00 +13°C° 0 mm 1 mps 596 mmHg 93%
    06:00 +15°C° 0 mm 1 mps 597 mmHg 89%
    07:00 +18°C° 0 mm 1 mps 598 mmHg 85%
    08:00 +19°C° 0 mm 1 mps 599 mmHg 81%
    09:00 +21°C° 0.1 mm 1 mps 600 mmHg 73%
    10:00 +22°C° 0.1 mm 1 mps 600 mmHg 66%
    11:00 +23°C° 0.1 mm 2 mps 600 mmHg 58%
    12:00 +23°C° 0.7 mm 2 mps 599 mmHg 65%
    13:00 +21°C° 0.7 mm 2 mps 598 mmHg 72%
    14:00 +20°C° 0.7 mm 2 mps 597 mmHg 80%
    15:00 +19°C° 1.1 mm 2 mps 597 mmHg 84%
    16:00 +19°C° 1.1 mm 1 mps 597 mmHg 89%
    17:00 +18°C° 1.1 mm 1 mps 596 mmHg 93%
    18:00 +16°C° 0.3 mm 1 mps 597 mmHg 94%
    19:00 +15°C° 0.3 mm 1 mps 597 mmHg 94%
    20:00 +14°C° 0.3 mm 1 mps 597 mmHg 95%
    21:00 +14°C° 0 mm 1 mps 597 mmHg 95%
    22:00 +14°C° 0 mm 1 mps 596 mmHg 95%
    23:00 +14°C° 0 mm 1 mps 596 mmHg 94%

    22 June, Saturday

    Time Temperature Precipitation Wind Pressure Humidity
    00:00 +14°C° 0 mm 1 mps 596 mmHg 94%
    01:00 +13°C° 0 mm 1 mps 596 mmHg 93%
    02:00 +13°C° 0 mm 1 mps 595 mmHg 92%
    03:00 +13°C° 0 mm 1 mps 595 mmHg 91%
    04:00 +13°C° 0 mm 1 mps 595 mmHg 90%
    05:00 +13°C° 0 mm 1 mps 596 mmHg 90%
    06:00 +15°C° 0 mm 1 mps 597 mmHg 84%
    07:00 +16°C° 0 mm 0 mps 598 mmHg 78%
    08:00 +18°C° 0 mm 0 mps 599 mmHg 73%
    09:00 +21°C° 0.1 mm 1 mps 599 mmHg 69%
    10:00 +21°C° 0.1 mm 2 mps 599 mmHg 65%
    11:00 +22°C° 0.1 mm 3 mps 599 mmHg 61%
    12:00 +21°C° 0.7 mm 2 mps 598 mmHg 68%
    13:00 +21°C° 0.7 mm 2 mps 598 mmHg 74%
    14:00 +20°C° 0.7 mm 2 mps 597 mmHg 80%
    15:00 +19°C° 0.5 mm 2 mps 597 mmHg 84%
    16:00 +19°C° 0.5 mm 1 mps 597 mmHg 88%
    17:00 +19°C° 0.5 mm 1 mps 596 mmHg 91%
    18:00 +18°C° 0.2 mm 1 mps 596 mmHg 93%
    19:00 +15°C° 0.2 mm 1 mps 596 mmHg 94%
    20:00 +14°C° 0.2 mm 1 mps 596 mmHg 96%
    21:00 +14°C° 0.1 mm 1 mps 596 mmHg 95%
    22:00 +14°C° 0.1 mm 1 mps 596 mmHg 95%
    23:00 +14°C° 0.1 mm 1 mps 596 mmHg 94%

    23 June, Sunday

    Time Temperature Precipitation Wind Pressure Humidity
    00:00 +14°C° 0 mm 1 mps 596 mmHg 94%
    01:00 +13°C° 0 mm 1 mps 595 mmHg 93%
    02:00 +13°C° 0 mm 1 mps 595 mmHg 93%
    03:00 +13°C° 0 mm 1 mps 595 mmHg 92%
    04:00 +13°C° 0 mm 1 mps 595 mmHg 91%
    05:00 +13°C° 0 mm 1 mps 595 mmHg 91%
    06:00 +15°C° 0 mm 1 mps 596 mmHg 85%
    07:00 +16°C° 0 mm 0 mps 598 mmHg 79%
    08:00 +18°C° 0 mm 0 mps 599 mmHg 73%
    09:00 +21°C° 0.1 mm 1 mps 599 mmHg 70%
    10:00 +21°C° 0.1 mm 2 mps 599 mmHg 66%
    11:00 +23°C° 0.1 mm 2 mps 599 mmHg 63%
    12:00 +21°C° 0.7 mm 2 mps 598 mmHg 68%
    13:00 +21°C° 0.7 mm 2 mps 598 mmHg 73%
    14:00 +20°C° 0.7 mm 2 mps 597 mmHg 78%
    15:00 +19°C° 0.6 mm 2 mps 597 mmHg 83%
    16:00 +19°C° 0.6 mm 1 mps 597 mmHg 88%
    17:00 +18°C° 0.6 mm 1 mps 596 mmHg 92%
    18:00 +16°C° 0.2 mm 1 mps 596 mmHg 94%
    19:00 +15°C° 0.2 mm 1 mps 596 mmHg 95%
    20:00 +14°C° 0.2 mm 1 mps 596 mmHg 96%
    21:00 +13°C° 0 mm 1 mps 596 mmHg 96%
    22:00 +13°C° 0 mm 1 mps 596 mmHg 96%
    23:00 +13°C° 0 mm 1 mps 596 mmHg 96%
    Show more